Retour au catalogue

NOAA 17 DEB

ActifPO
NORAD 48166·DEBRIS·🇺🇸 United States

Lancé Jun 24, 2002 depuis Vandenberg Space Force Base

Loading…

Prochains Passages (prochaines 24 heures)

TLE

FraisSource: Space-Track

Époque: Sep 14, 2026, 01:27 UTC

1 48166U 02032G   26257.06042900  .00007947  00000-0  13730-2 0  9998
2 48166  98.7864 278.0890 0009201 238.8938 121.1363 14.68680149289616

Suivez NOAA 17 DEB en temps réel avec AllMySat

Download on the App Store